Date String (YYYY-MM-DD hh:mm:ss) UTC,Instrument flags,absolute air pressure of the measurement (hPa),sample flow rate (lpm),inlet stack bypass flow (lpm),air temperature of the measurement (°C),ambient temperature measured by the external sensor (°C),aerosol sample conditioner tube jacket temperature (°C),OPC LED temperature (°C),internal box temperature (°C),relative humidity of the measurement (%),span deviation,mass concentration of particles derived from Lorenz-Mie calculation of OPC scattering (μg/m³),mass concentration of particles derived from Lorenz-Mie calculation of OPC scattering (μg/m³),mass concentration of particles derived from Lorenz-Mie calculation of OPC scattering (μg/m³)
DateTimeUTC,F1_M11,P_M11,Q1_M11,Q2_M11,T1_M11,T2_M11,T3_M11,T4_M11,T5_M11,U1_M11,ZSPAN_M11,X0_M11,X2_M11,X1_M11
2024-02-22 08:00:00,SystemResetWarning,0827.0,5.01,000.00,020.3,019.8,000.0,028.8,022.1,23.4,0000.0,0005.52,0001.34,0001.04
2024-02-22 08:01:00,SystemResetWarning,0826.9,4.99,000.00,020.3,019.8,000.0,028.8,022.1,23.4,0000.0,0005.47,0001.32,0001.04
2024-02-22 08:02:00,SystemResetWarning,0826.9,5.00,000.00,020.3,019.8,000.0,028.8,022.1,23.4,0000.0,0005.58,0001.36,0001.04
2024-02-22 08:03:00,SystemResetWarning,0826.9,5.00,000.00,020.3,019.8,000.0,028.8,022.1,23.3,0000.0,0005.69,0001.37,0001.03
2024-02-22 08:04:00,SystemResetWarning,0826.9,4.99,000.00,020.3,019.8,000.0,028.8,022.1,23.3,0000.0,0005.64,0001.34,0001.03
2024-02-22 08:05:00,SystemResetWarning,0826.9,5.00,000.00,020.3,019.8,000.0,028.8,022.1,23.3,0000.0,0005.56,0001.32,0001.01
2024-02-22 08:06:00,SystemResetWarning,0826.8,5.00,000.00,020.3,019.8,000.0,028.8,022.1,23.3,0000.0,0004.64,0001.36,0001.01
2024-02-22 08:07:00,SystemResetWarning,0826.9,5.00,000.00,020.3,019.8,000.0,028.8,022.1,23.3,0000.0,0004.50,0001.36,0001.01
2024-02-22 08:08:00,SystemResetWarning,0826.9,5.01,000.00,020.3,019.8,000.0,028.8,022.1,23.3,0000.0,0005.01,0001.35,0001.00
2024-02-22 08:09:00,SystemResetWarning,0826.9,5.01,000.00,020.3,019.7,000.0,028.8,022.1,23.3,0000.0,0004.25,0001.33,0001.00
2024-02-22 08:10:00,SystemResetWarning,0826.9,5.01,000.00,020.3,019.7,000.0,028.8,022.1,23.3,0000.0,0004.04,0001.38,0001.00
2024-02-22 08:11:00,SystemResetWarning,0826.9,5.00,000.00,020.3,019.7,000.0,028.8,022.1,23.3,0000.0,0003.33,0001.42,0001.01
2024-02-22 08:12:00,SystemResetWarning,0826.9,4.99,000.00,020.3,019.7,000.0,028.8,022.1,23.3,0000.0,0003.30,0001.41,0001.00
2024-02-22 08:13:00,SystemResetWarning,0827.0,4.99,000.00,020.3,019.7,000.0,028.8,022.1,23.3,0000.0,0003.20,0001.35,0000.99
2024-02-22 08:14:00,SystemResetWarning,0827.0,5.00,000.00,020.3,019.7,000.0,028.8,022.1,23.3,0000.0,0003.09,0001.33,0000.99
2024-02-22 08:15:00,SystemResetWarning,0827.0,5.01,000.00,020.3,019.8,000.0,028.8,022.1,23.3,0000.0,0003.01,0001.31,0000.99
2024-02-22 08:16:00,SystemResetWarning,0827.0,5.00,000.00,020.3,019.8,000.0,028.8,022.1,23.3,0000.0,0003.06,0001.33,0001.00
2024-02-22 08:17:00,SystemResetWarning,0827.1,4.99,000.00,020.3,019.8,000.0,028.8,022.1,23.3,0000.0,0002.98,0001.31,0001.00
2024-02-22 08:18:00,SystemResetWarning,0827.0,5.00,000.00,020.3,019.8,000.0,028.8,022.1,23.2,0000.0,0002.98,0001.33,0001.00
2024-02-22 08:19:00,SystemResetWarning,0827.0,4.99,000.00,020.3,019.8,000.0,028.8,022.1,23.2,0000.0,0002.62,0001.35,0001.02
2024-02-22 08:20:00,SystemResetWarning,0827.0,5.00,000.00,020.3,019.8,000.0,028.8,022.2,23.2,0000.0,0002.30,0001.33,0001.01
2024-02-22 08:21:00,SystemResetWarning,0827.1,5.00,000.00,020.3,019.8,000.0,028.8,022.2,23.2,0000.0,0002.07,0001.29,0001.01
2024-02-22 08:22:00,SystemResetWarning,0827.1,5.01,000.00,020.3,019.8,000.0,028.8,022.1,23.2,0000.0,0001.92,0001.28,0001.01
2024-02-22 08:23:00,SystemResetWarning,0827.1,5.00,000.00,020.3,019.8,000.0,028.8,022.2,23.2,0000.0,0002.68,0001.32,0001.02
2024-02-22 08:24:00,SystemResetWarning,0827.1,5.01,000.00,020.3,019.8,000.0,028.8,022.1,23.2,0000.0,0003.24,0001.38,0001.03
2024-02-22 08:25:00,SystemResetWarning,0827.1,5.00,000.00,020.3,019.8,000.0,028.8,022.1,23.2,0000.0,0003.44,0001.41,0001.04
2024-02-22 08:26:00,SystemResetWarning,0827.1,5.00,000.00,020.3,019.8,000.0,028.8,022.1,23.2,0000.0,0003.47,0001.42,0001.05
2024-02-22 08:27:00,SystemResetWarning,0827.1,5.00,000.00,020.3,019.8,000.0,028.8,022.1,23.2,0000.0,0003.65,0001.47,0001.05
2024-02-22 08:28:00,SystemResetWarning,0827.1,5.00,000.00,020.3,019.8,000.0,028.8,022.1,23.2,0000.0,0003.74,0001.50,0001.07
2024-02-22 08:29:00,SystemResetWarning,0827.1,4.99,000.00,020.3,019.8,000.0,028.8,022.2,23.2,0000.0,0004.58,0001.54,0001.08
2024-02-22 08:30:00,SystemResetWarning,0827.1,5.00,000.00,020.3,019.8,000.0,028.8,022.2,23.2,0000.0,0005.75,0001.54,0001.07
2024-02-22 08:31:00,SystemResetWarning,0827.1,4.99,000.00,020.3,019.8,000.0,028.8,022.2,23.1,0000.0,0005.85,0001.58,0001.07
2024-02-22 08:32:00,SystemResetWarning,0827.1,4.99,000.00,020.3,019.8,000.0,028.8,022.2,23.1,0000.0,0005.82,0001.57,0001.08
2024-02-22 08:33:00,SystemResetWarning,0827.1,5.01,000.00,020.3,019.8,000.0,028.8,022.2,23.1,0000.0,0005.77,0001.58,0001.09
2024-02-22 08:34:00,SystemResetWarning,0827.1,5.01,000.00,020.3,019.8,000.0,028.8,022.2,23.0,0000.0,0005.06,0001.55,0001.10
2024-02-22 08:35:00,SystemResetWarning,0827.1,5.00,000.00,020.3,019.8,000.0,028.8,022.2,23.0,0000.0,0004.52,0001.51,0001.10
2024-02-22 08:36:00,SystemResetWarning,0827.1,4.99,000.00,020.3,019.8,000.0,028.8,022.2,23.0,0000.0,0004.87,0001.49,0001.10
2024-02-22 08:37:00,SystemResetWarning,0827.1,5.00,000.00,020.3,019.8,000.0,028.8,022.1,23.0,0000.0,0005.84,0001.52,0001.10
2024-02-22 08:38:00,SystemResetWarning,0827.1,4.99,000.00,020.3,019.7,000.0,028.8,022.1,23.0,0000.0,0005.79,0001.48,0001.11
2024-02-22 08:39:00,SystemResetWarning,0827.1,5.01,000.00,020.3,019.7,000.0,028.8,022.1,23.0,0000.0,0005.80,0001.47,0001.10
2024-02-22 08:40:00,SystemResetWarning,0827.1,5.01,000.00,020.3,019.7,000.0,028.8,022.1,22.9,0000.0,0005.10,0001.46,0001.11
2024-02-22 08:41:00,SystemResetWarning,0827.0,5.01,000.00,020.3,019.8,000.0,028.8,022.1,22.9,0000.0,0003.93,0001.47,0001.14
2024-02-22 08:42:00,SystemResetWarning,0827.1,5.01,000.00,020.3,019.8,000.0,028.8,022.1,22.8,0000.0,0003.99,0001.49,0001.15
2024-02-22 08:43:00,SystemResetWarning,0827.1,5.00,000.00,020.3,019.8,000.0,028.8,022.1,22.8,0000.0,0004.04,0001.52,0001.17
2024-02-22 08:44:00,SystemResetWarning,0827.1,5.00,000.00,020.3,019.8,000.0,028.8,022.2,22.7,0000.0,0003.96,0001.51,0001.18
2024-02-22 08:45:00,SystemResetWarning,0827.1,5.00,000.00,020.3,019.8,000.0,028.8,022.2,22.7,0000.0,0004.58,0001.55,0001.18
2024-02-22 08:46:00,SystemResetWarning,0827.1,4.99,000.00,020.3,019.8,000.0,028.8,022.2,22.7,0000.0,0005.87,0001.57,0001.19
2024-02-22 08:47:00,SystemResetWarning,0827.1,5.00,000.00,020.3,019.9,000.0,028.8,022.2,22.7,0000.0,0005.52,0001.61,0001.19
2024-02-22 08:48:00,SystemResetWarning,0827.1,5.00,000.00,020.3,019.9,000.0,028.8,022.2,22.8,0000.0,0005.32,0001.65,0001.20
2024-02-22 08:49:00,SystemResetWarning,0827.2,5.00,000.00,020.4,019.9,000.0,028.8,022.2,22.8,0000.0,0005.73,0001.63,0001.20
2024-02-22 08:50:00,SystemResetWarning,0827.1,5.00,000.00,020.4,019.9,000.0,028.8,022.2,22.8,0000.0,0005.65,0001.64,0001.21
2024-02-22 08:51:00,SystemResetWarning,0827.1,5.01,000.00,020.4,019.9,000.0,028.8,022.3,22.8,0000.0,0006.14,0001.63,0001.22
2024-02-22 08:52:00,SystemResetWarning,0827.1,5.00,000.00,020.4,019.9,000.0,028.8,022.3,22.8,0000.0,0007.04,0001.64,0001.23
2024-02-22 08:53:00,SystemResetWarning,0827.1,5.00,000.00,020.4,019.9,000.0,028.8,022.3,22.8,0000.0,0007.73,0001.66,0001.23
2024-02-22 08:54:00,SystemResetWarning,0827.1,5.00,000.00,020.4,019.9,000.0,028.8,022.3,22.8,0000.0,0007.84,0001.66,0001.23
2024-02-22 08:55:00,SystemResetWarning,0827.1,4.99,000.00,020.4,019.9,000.0,028.8,022.3,22.8,0000.0,0008.07,0001.68,0001.23
2024-02-22 08:56:00,SystemResetWarning,0827.1,4.99,000.00,020.4,019.9,000.0,028.8,022.3,22.8,0000.0,0007.84,0001.66,0001.23
2024-02-22 08:57:00,SystemResetWarning,0827.1,5.00,000.00,020.4,019.9,000.0,028.9,022.3,22.7,0000.0,0007.01,0001.65,0001.23
2024-02-22 08:58:00,SystemResetWarning,0827.1,5.00,000.00,020.4,019.9,000.0,028.9,022.3,22.7,0000.0,0006.93,0001.68,0001.24
2024-02-22 08:59:00,SystemResetWarning,0827.1,5.01,000.00,020.4,019.9,000.0,028.9,022.3,22.7,0000.0,0006.51,0001.66,0001.25
